[[[{"header":{"parameterUnit":"kt","parameterCategory":2,"dx":1,"dy":1,"la1":30.253999710083008,"la2":30.299108505249023,"lo1":-89.0895004272461,"lo2":-89.04439544677734,"nx":28,"ny":28,"refTime":"2022-10-02T21:00:00:Z","depth":0,"parameterNumber":1,"parameterNumberName":"U-component_of_WINDS"},"data":[1.1602,1.1565,1.1536,1.148,1.1444,1.14,1.1374,1.1338,1.1301,1.1243,1.1204,1.1169,1.1119,1.1063,1.1018,1.1003,1.0985,1.0994,1.0974,1.0963,1.0959,1.0955,1.0962,1.0992,1.0992,1.099,1.099,1.099,1.16,1.1565,1.1527,1.147,1.1436,1.1411,1.1362,1.1335,1.1295,1.1249,1.1208,1.1154,1.1106,1.105,1.0998,1.0978,1.0961,1.0966,1.0966,1.0958,1.0945,1.0953,1.0981,1.0981,1.0981,1.0981,1.0981,1.0981,1.1588,1.1566,1.1515,1.1472,1.1435,1.1396,1.1369,1.1327,1.1287,1.1231,1.1202,1.1154,1.11,1.1021,1.0986,1.0947,1.0935,1.093,1.0928,1.0927,1.0931,1.0937,1.0937,1.0936,1.0936,1.0936,1.0936,0,1.1569,1.1546,1.1506,1.1459,1.1425,1.1384,1.1341,1.1323,1.1261,1.123,1.1182,1.1149,1.1083,1.1033,1.0977,1.094,1.0906,1.0899,1.0895,1.0908,1.0928,1.0916,1.0896,1.0898,1.0898,1.0897,1.0897,1.0897,1.1553,1.1531,1.1462,1.1438,1.1406,1.1368,1.1338,1.1285,1.1255,1.1192,1.1174,1.1124,1.1081,1.1007,1.0953,1.0902,1.0884,1.0889,1.0876,1.0892,1.0883,1.0885,1.0882,1.0892,1.0893,1.0893,1.0893,0,1.1547,1.1498,1.1453,1.1385,1.1367,1.1346,1.1286,1.1261,1.1221,1.118,1.1167,1.1103,1.1055,1.1,1.0934,1.0906,1.0868,1.0853,1.0887,1.0881,1.0879,1.0879,1.0882,1.0879,1.085,1.085,1.0851,0,1.1514,1.1486,1.1413,1.139,1.1357,1.1303,1.1272,1.1234,1.1186,1.1153,1.1107,1.1076,1.101,1.0972,1.093,1.089,1.0877,1.0853,1.0842,1.0856,1.0859,1.0836,1.0834,1.0819,1.0819,1.0819,1.0819,0,1.1508,1.1436,1.1398,1.1373,1.1295,1.1278,1.1244,1.1189,1.116,1.1112,1.1092,1.104,1.1011,1.0971,1.0918,1.0912,1.0867,1.0846,1.0842,1.0843,1.0832,1.0833,1.0852,1.0819,1.0819,1.0819,1.0819,0,1.1472,1.1427,1.1379,1.1313,1.1296,1.127,1.1216,1.1181,1.1126,1.1098,1.106,1.1021,1.0981,1.0965,1.0908,1.0915,1.0888,1.0861,1.086,1.0851,1.0834,1.085,1.0875,1.0875,1.0846,1.0846,1.0846,0,1.148,1.1417,1.137,1.1324,1.1287,1.1238,1.1208,1.116,1.1121,1.1083,1.1039,1.0994,1.0971,1.0948,1.0928,1.088,1.0872,1.0879,1.0821,1.082,1.0838,1.086,1.0877,1.0877,1.0849,1.0848,1.0848,0,1.1478,1.1384,1.1379,1.1348,1.1276,1.1244,1.121,1.1154,1.1132,1.1082,1.1051,1.0987,1.0966,1.0929,1.0891,1.0873,1.0876,1.0852,1.0849,1.0857,1.0845,1.0861,1.0862,1.0854,1.0853,1.0853,1.085,0,1.1434,1.1395,1.138,1.1312,1.1279,1.1246,1.1187,1.116,1.1127,1.1086,1.1038,1.0981,1.0922,1.0907,1.0873,1.0849,1.0843,1.0821,1.0799,1.0815,1.0812,1.0811,1.0808,1.0807,1.0806,1.0806,0,0,1.1453,1.1396,1.1343,1.1307,1.1276,1.1223,1.1193,1.1156,1.108,1.1059,1.1047,1.0948,1.0902,1.0849,1.0849,1.0825,1.0814,1.081,1.0808,1.0809,1.0809,1.0807,1.0807,1.0804,1.0804,1.0804,1.0803,0,1.1424,1.1382,1.1354,1.1313,1.1251,1.1208,1.1202,1.113,1.1101,1.1053,1.1008,1.0971,1.0892,1.0849,1.0817,1.0816,1.0782,1.0803,1.0823,1.0802,1.0803,1.0805,1.0804,1.0804,1.0801,1.0801,1.0801,0,1.1411,1.136,1.134,1.1265,1.1223,1.1185,1.1149,1.111,1.1081,1.102,1.0973,1.0933,1.0869,1.0827,1.0805,1.0793,1.0756,1.0756,1.076,1.0755,1.0731,1.0734,1.0736,1.071,1.071,1.071,0,0,1.1394,1.1357,1.1282,1.1254,1.1231,1.1167,1.114,1.1104,1.1049,1.1027,1.0974,1.0921,1.0874,1.0844,1.0797,1.0759,1.0741,1.0748,1.0752,1.0756,1.0753,1.0731,1.0733,1.071,1.071,1.071,0,0,1.1384,1.1298,1.1274,1.1235,1.1186,1.1108,1.1092,1.1061,1.1012,1.1009,1.0943,1.0926,1.0885,1.0846,1.0851,1.0788,1.0767,1.0765,1.0814,1.0819,1.0823,1.0832,1.0803,0,0,0,0,0,1.1324,1.1309,1.1289,1.1273,1.1176,1.112,1.1107,1.1054,1.1041,1.103,1.0981,1.0946,1.0835,1.0838,1.0822,1.0817,1.0707,1.0708,1.0708,1.0763,1.0768,1.0773,0,0,0,0,0,0,1.1317,1.1298,1.1289,1.1212,1.119,1.112,1.1087,1.1072,1.1041,1.1035,1.0957,1.0943,1.0895,1.0842,1.0829,1.0825,1.0807,1.0708,1.0708,1.0708,1.0765,1.0769,1.0773,0,0,0,0,0,1.1312,1.1296,1.1156,1.1212,1.1192,1.1118,1.1087,1.1074,1.1049,1.0971,1.0957,1.1012,1.0896,1.0881,1.0834,1.0832,1.0816,1.0811,1.0708,1.0708,1.0708,1.0767,0,0,0,0,0,0,1.1308,1.1283,1.1151,1.1143,1.1213,1.1121,1.1105,1.1077,1.0986,1.0972,1.1023,1.102,1.0897,1.0885,1.0874,1.0838,1.0823,1.0818,1.0815,1.0708,1.0708,1.0708,0,0,0,0,0,0,1.1291,1.1277,1.1147,1.1151,1.1143,1.1124,1.1109,1.106,1.0985,1.1042,1.1037,1.1023,1.0913,1.0888,1.0879,1.0805,1.0829,1.0824,1.0821,1.0819,1.0708,1.0708,0,0,0,0,0,0,1.1284,1.1272,1.1153,1.1147,1.114,1.1046,1.1079,1.0982,1.0993,1.1047,1.0992,1.0991,1.0917,1.0907,1.0883,1.0813,1.0807,1.0828,1.0825,1.0823,1.0822,0,0,0,0,0,0,0,1.1279,1.1373,1.1198,1.1143,1.1137,1.1069,1.1067,1.1065,1.0992,1.0992,1.0992,1.0991,1.0855,1.085,1.0845,1.0819,0,0,1.0829,1.0827,0,0,0,0,0,0,0,0,1.1377,1.1374,1.1198,1.1196,1.1195,1.1069,1.1067,1.1065,1.0992,1.0992,1.0992,1.0992,1.0854,1.085,1.0845,0,0,0,0,0,0,0,0,0,0,0,0,0,0,0,1.1198,1.1197,0,1.1069,1.1067,1.1066,1.0992,1.0992,1.0992,1.0992,1.0853,1.0849,1.0846,0,0,0,0,0,0,0,0,0,0,0,0,0,0,0,0,0,0,0,0,0,0,0,0,0,0,0,0,0,0,0,0,0,0,0,0,0,0,0,0,0,0,0,0,0,0,0,0,0,0,0,0,0,0,0,0,0,0,0,0,0,0,0,0,0,0,0,0,0]}],[{"header":{"parameterUnit":"kt","parameterCategory":2,"dx":1,"dy":1,"la1":30.253999710083008,"la2":30.299108505249023,"lo1":-89.0895004272461,"lo2":-89.04439544677734,"nx":28,"ny":28,"refTime":"2022-10-02T21:00:00:Z","depth":0,"parameterNumber":2,"parameterNumberName":"V-component_of_WINDS"},"data":[-9.5782,-9.6008,-9.6022,-9.6285,-9.6341,-9.6523,-9.6591,-9.6681,-9.6754,-9.6969,-9.7095,-9.7127,-9.7203,-9.7353,-9.7487,-9.7497,-9.7554,-9.7627,-9.7627,-9.7294,-9.7248,-9.7205,-9.7154,-9.7638,-9.7639,-9.7971,-9.7975,-9.7977,-9.5542,-9.5601,-9.5744,-9.5891,-9.6013,-9.5952,-9.6062,-9.6167,-9.633,-9.6421,-9.6544,-9.6732,-9.6881,-9.6931,-9.7076,-9.7179,-9.7157,-9.7218,-9.7211,-9.7224,-9.6868,-9.6814,-9.7233,-9.7233,-9.7233,-9.7233,-9.7233,-9.7233,-9.5109,-9.5244,-9.534,-9.5494,-9.5571,-9.5668,-9.5797,-9.5835,-9.5972,-9.6126,-9.611,-9.6293,-9.6383,-9.6559,-9.662,-9.676,-9.6694,-9.6763,-9.6781,-9.6799,-9.6819,-9.6344,-9.6784,-9.6783,-9.6782,-9.6781,-9.678,0,-9.4796,-9.4799,-9.4935,-9.5076,-9.5188,-9.5297,-9.5398,-9.5478,-9.548,-9.5592,-9.5755,-9.5851,-9.6037,-9.619,-9.6325,-9.6373,-9.6318,-9.6311,-9.6359,-9.6372,-9.6368,-9.6376,-9.5798,-9.6298,-9.6294,-9.6291,-9.6289,-9.6287,-9.4363,-9.4517,-9.4621,-9.4715,-9.4773,-9.4924,-9.5016,-9.5005,-9.5103,-9.5223,-9.534,-9.5492,-9.5614,-9.587,-9.5907,-9.6045,-9.6019,-9.621,-9.6039,-9.6046,-9.6026,-9.6018,-9.6035,-9.6244,-9.6249,-9.6254,-9.6257,0,-9.4119,-9.4136,-9.4377,-9.4463,-9.4489,-9.465,-9.4722,-9.4853,-9.4873,-9.5056,-9.5097,-9.5128,-9.5286,-9.5292,-9.5471,-9.5469,-9.5734,-9.5703,-9.5704,-9.5699,-9.5873,-9.5858,-9.643,-9.6505,-9.6,-9.6004,-9.6008,0,-9.3756,-9.3957,-9.3971,-9.411,-9.4332,-9.4316,-9.4536,-9.4575,-9.4652,-9.4795,-9.4733,-9.4869,-9.4854,-9.499,-9.4987,-9.5203,-9.5235,-9.5248,-9.5245,-9.5255,-9.5255,-9.5306,-9.5284,-9.5228,-9.5225,-9.5223,-9.522,0,-9.3374,-9.3614,-9.3839,-9.3896,-9.4005,-9.4111,-9.416,-9.4245,-9.4333,-9.4448,-9.4505,-9.4639,-9.4713,-9.4816,-9.4812,-9.4696,-9.5075,-9.4914,-9.5087,-9.5088,-9.5172,-9.5167,-9.567,-9.5217,-9.5216,-9.5215,-9.5214,0,-9.3083,-9.3203,-9.3525,-9.3615,-9.3678,-9.3824,-9.3957,-9.4083,-9.4176,-9.4184,-9.4274,-9.4232,-9.4419,-9.4261,-9.4518,-9.437,-9.4445,-9.4473,-9.4485,-9.4504,-9.4327,-9.4614,-9.509,-9.5142,-9.452,-9.4514,-9.4509,0,-9.2643,-9.2971,-9.2959,-9.3264,-9.3416,-9.3338,-9.3499,-9.3583,-9.3608,-9.3738,-9.3763,-9.3911,-9.3794,-9.3841,-9.3967,-9.3998,-9.4191,-9.3972,-9.4161,-9.4168,-9.4143,-9.4581,-9.4652,-9.4985,-9.4435,-9.4442,-9.4448,0,-9.2302,-9.2433,-9.2489,-9.2553,-9.2662,-9.2787,-9.2972,-9.3116,-9.3205,-9.3303,-9.3459,-9.3664,-9.3585,-9.3662,-9.3641,-9.3772,-9.406,-9.3669,-9.367,-9.3742,-9.4396,-9.4464,-9.452,-9.4016,-9.4025,-9.4033,-9.4389,0,-9.1866,-9.203,-9.2179,-9.2321,-9.2418,-9.2607,-9.2614,-9.2715,-9.2686,-9.2707,-9.2932,-9.2998,-9.3142,-9.3204,-9.3175,-9.3474,-9.3425,-9.3337,-9.3184,-9.347,-9.3588,-9.3636,-9.3009,-9.3004,-9.3,-9.2997,0,0,-9.1441,-9.1676,-9.1655,-9.1835,-9.1916,-9.183,-9.2032,-9.21,-9.2238,-9.2296,-9.221,-9.2511,-9.2568,-9.284,-9.293,-9.2986,-9.304,-9.2939,-9.3333,-9.3371,-9.3406,-9.3532,-9.3581,-9.2991,-9.2989,-9.2988,-9.2987,0,-9.1284,-9.1347,-9.1547,-9.1617,-9.172,-9.1732,-9.178,-9.1865,-9.1887,-9.2107,-9.2031,-9.2166,-9.2403,-9.2476,-9.2543,-9.2906,-9.2841,-9.2949,-9.3145,-9.3295,-9.3337,-9.3375,-9.3507,-9.3555,-9.2977,-9.2978,-9.2978,0,-9.0952,-9.1017,-9.1113,-9.1292,-9.1357,-9.1514,-9.1356,-9.1526,-9.1641,-9.1534,-9.1753,-9.179,-9.1884,-9.214,-9.2254,-9.2179,-9.266,-9.2506,-9.253,-9.2543,-9.2689,-9.274,-9.2786,-9.2187,-9.2184,-9.2181,0,0,-9.0815,-9.0966,-9.1029,-9.1258,-9.1305,-9.1324,-9.1406,-9.1386,-9.1474,-9.151,-9.1556,-9.1642,-9.1781,-9.1872,-9.2001,-9.228,-9.2299,-9.2409,-9.2446,-9.2477,-9.2506,-9.266,-9.2711,-9.2171,-9.2171,-9.217,0,0,-9.0748,-9.0832,-9.0787,-9.1054,-9.1142,-9.1217,-9.1357,-9.1303,-9.142,-9.1399,-9.1369,-9.1391,-9.1629,-9.1667,-9.1528,-9.1947,-9.1795,-9.1828,-9.1913,-9.196,-9.1997,-9.1984,-9.1373,0,0,0,0,0,-9.059,-9.0821,-9.078,-9.0826,-9.1049,-9.1241,-9.1269,-9.1251,-9.1145,-9.1256,-9.1286,-9.1209,-9.1586,-9.1463,-9.1507,-9.1662,-9.2037,-9.2061,-9.2083,-9.2259,-9.2308,-9.235,0,0,0,0,0,0,-9.0608,-9.0663,-9.0774,-9.086,-9.091,-9.1232,-9.1049,-9.105,-9.1133,-9.1116,-9.1206,-9.1212,-9.1199,-9.1438,-9.1479,-9.1627,-9.1359,-9.2046,-9.2066,-9.2085,-9.2276,-9.2316,-9.2351,0,0,0,0,0,-9.0622,-9.0666,-9.1029,-9.0856,-9.09,-9.0932,-9.104,-9.104,-9.1103,-9.1149,-9.1152,-9.1082,-9.1203,-9.1236,-9.1462,-9.1609,-9.1331,-9.1346,-9.2059,-9.2075,-9.209,-9.2296,0,0,0,0,0,0,-9.0632,-9.0667,-9.1037,-9.105,-9.0767,-9.0913,-9.0936,-9.1031,-9.113,-9.1137,-9.1022,-9.1008,-9.121,-9.1233,-9.1259,-9.1604,-9.1308,-9.1324,-9.1333,-9.2072,-9.2084,-9.2095,0,0,0,0,0,0,-9.0642,-9.0678,-9.1044,-9.0933,-9.0932,-9.0897,-9.0917,-9.1104,-9.1132,-9.0998,-9.0988,-9.1015,-9.117,-9.1233,-9.1253,-9.1547,-9.1291,-9.1305,-9.1316,-9.1322,-9.2082,-9.2091,0,0,0,0,0,0,-9.0657,-9.0688,-9.0929,-9.0929,-9.0928,-9.1066,-9.1062,-9.1291,-9.104,-9.0995,-9.1017,-9.1006,-9.1172,-9.1191,-9.1249,-9.1535,-9.1544,-9.1291,-9.1301,-9.1308,-9.1313,0,0,0,0,0,0,0,-9.0669,-9.0469,-9.0964,-9.0926,-9.0925,-9.1165,-9.1169,-9.1172,-9.1038,-9.1029,-9.1019,-9.1011,-9.1207,-9.1223,-9.1239,-9.1526,0,0,-9.129,-9.1297,0,0,0,0,0,0,0,0,-9.0456,-9.0466,-9.0964,-9.0967,-9.097,-9.1166,-9.1169,-9.1171,-9.1036,-9.1029,-9.1021,-9.1014,-9.1211,-9.1224,-9.1238,0,0,0,0,0,0,0,0,0,0,0,0,0,0,0,-9.0965,-9.0967,0,-9.1166,-9.1169,-9.1171,-9.1035,-9.1029,-9.1023,-9.1017,-9.1215,-9.1226,-9.1237,0,0,0,0,0,0,0,0,0,0,0,0,0,0,0,0,0,0,0,0,0,0,0,0,0,0,0,0,0,0,0,0,0,0,0,0,0,0,0,0,0,0,0,0,0,0,0,0,0,0,0,0,0,0,0,0,0,0,0,0,0,0,0,0,0,0,0,0,0]}]]]